TimeCDT,TemperatureF,Dew PointF,Humidity,Sea Level PressureIn,VisibilityMPH,Wind Direction,Wind SpeedMPH,Gust SpeedMPH,PrecipitationIn,Events,Conditions,WindDirDegrees,DateUTC
12:05 AM,73.4,66.2,78,29.95,10.0,North,9.2,-,N/A,,Clear,10,2013-06-13 05:05:00
12:25 AM,75.2,66.2,73,29.96,10.0,North,6.9,-,N/A,,Clear,360,2013-06-13 05:25:00
12:45 AM,77.0,64.4,65,29.96,10.0,NW,5.8,-,N/A,,Clear,320,2013-06-13 05:45:00
1:05 AM,77.0,64.4,65,29.97,10.0,West,4.6,-,N/A,,Clear,270,2013-06-13 06:05:00
1:25 AM,77.0,64.4,65,29.97,10.0,WNW,6.9,-,N/A,,Clear,290,2013-06-13 06:25:00
1:45 AM,73.4,64.4,73,29.97,10.0,NW,5.8,-,N/A,,Clear,320,2013-06-13 06:45:00
2:05 AM,75.2,66.2,73,29.98,10.0,North,6.9,-,N/A,,Clear,360,2013-06-13 07:05:00
2:25 AM,77.0,66.2,69,29.98,10.0,NNE,6.9,-,N/A,,Clear,30,2013-06-13 07:25:00
2:45 AM,75.2,68.0,78,29.99,10.0,NNE,10.4,-,N/A,,Clear,30,2013-06-13 07:45:00
3:05 AM,77.0,68.0,74,29.99,10.0,NNE,10.4,-,N/A,,Clear,30,2013-06-13 08:05:00
3:25 AM,77.0,64.4,65,30.00,10.0,NE,13.8,-,N/A,,Clear,40,2013-06-13 08:25:00
3:45 AM,75.2,64.4,69,30.00,10.0,NNE,11.5,-,N/A,,Clear,30,2013-06-13 08:45:00
4:05 AM,75.2,62.6,65,30.01,10.0,NNE,11.5,23.0,N/A,,Clear,20,2013-06-13 09:05:00
4:25 AM,73.4,62.6,69,30.01,10.0,NE,15.0,24.2,N/A,,Clear,40,2013-06-13 09:25:00
4:45 AM,73.4,60.8,65,30.02,10.0,NE,15.0,-,N/A,,Clear,40,2013-06-13 09:45:00
5:05 AM,71.6,60.8,69,30.03,10.0,NE,15.0,-,N/A,,Clear,40,2013-06-13 10:05:00
5:25 AM,71.6,59.0,64,30.04,10.0,NNE,12.7,-,N/A,,Clear,30,2013-06-13 10:25:00
5:45 AM,69.8,59.0,68,30.04,10.0,NE,12.7,18.4,N/A,,Clear,40,2013-06-13 10:45:00
6:05 AM,68.0,59.0,73,30.05,10.0,NE,11.5,18.4,N/A,,Clear,40,2013-06-13 11:05:00
6:25 AM,68.0,59.0,73,30.06,10.0,NNE,8.1,-,N/A,,Clear,20,2013-06-13 11:25:00
6:45 AM,68.0,59.0,73,30.06,10.0,NE,10.4,-,N/A,,Clear,40,2013-06-13 11:45:00
7:05 AM,68.0,59.0,73,30.07,10.0,NE,10.4,-,N/A,,Clear,40,2013-06-13 12:05:00
7:25 AM,68.0,59.0,73,30.07,10.0,ENE,11.5,-,N/A,,Clear,60,2013-06-13 12:25:00
7:45 AM,69.8,57.2,64,30.07,10.0,ENE,11.5,17.3,N/A,,Clear,70,2013-06-13 12:45:00
8:05 AM,69.8,57.2,64,30.08,10.0,ENE,12.7,20.7,N/A,,Clear,70,2013-06-13 13:05:00
8:25 AM,71.6,55.4,57,30.08,10.0,ENE,13.8,19.6,N/A,,Clear,70,2013-06-13 13:25:00
8:45 AM,71.6,55.4,57,30.08,10.0,ENE,12.7,-,N/A,,Clear,60,2013-06-13 13:45:00
9:05 AM,73.4,57.2,57,30.09,10.0,East,11.5,17.3,N/A,,Clear,80,2013-06-13 14:05:00
9:25 AM,73.4,57.2,57,30.09,10.0,East,11.5,-,N/A,,Clear,90,2013-06-13 14:25:00
9:45 AM,75.2,57.2,53,30.09,10.0,ENE,9.2,17.3,N/A,,Clear,70,2013-06-13 14:45:00
10:05 AM,75.2,59.0,57,30.08,10.0,East,8.1,-,N/A,,Clear,80,2013-06-13 15:05:00
10:25 AM,77.0,59.0,54,30.07,10.0,East,11.5,16.1,N/A,,Clear,100,2013-06-13 15:25:00
10:45 AM,78.8,60.8,54,30.06,10.0,ESE,8.1,-,N/A,,Clear,110,2013-06-13 15:45:00
11:05 AM,80.6,60.8,51,30.07,10.0,SE,8.1,-,N/A,,Clear,130,2013-06-13 16:05:00
11:25 AM,80.6,62.6,54,30.06,10.0,ESE,9.2,-,N/A,,Clear,110,2013-06-13 16:25:00
11:45 AM,82.4,62.6,51,30.06,10.0,ESE,9.2,-,N/A,,Clear,110,2013-06-13 16:45:00
12:05 PM,82.4,62.6,51,30.06,10.0,ENE,5.8,-,N/A,,Clear,70,2013-06-13 17:05:00
12:25 PM,84.2,62.6,48,30.05,10.0,East,9.2,-,N/A,,Clear,90,2013-06-13 17:25:00
12:45 PM,86.0,64.4,48,30.04,10.0,SE,5.8,-,N/A,,Clear,130,2013-06-13 17:45:00
1:05 PM,86.0,62.6,45,30.04,10.0,SE,4.6,-,N/A,,Clear,130,2013-06-13 18:05:00
1:25 PM,89.6,64.4,43,30.03,10.0,ESE,9.2,-,N/A,,Clear,110,2013-06-13 18:25:00
1:45 PM,89.6,64.4,43,30.02,10.0,South,4.6,-,N/A,,Clear,170,2013-06-13 18:45:00
2:05 PM,91.4,64.4,41,30.01,10.0,South,3.5,-,N/A,,Clear,190,2013-06-13 19:05:00
2:25 PM,93.2,64.4,38,30.01,10.0,South,9.2,-,N/A,,Clear,170,2013-06-13 19:25:00
2:45 PM,93.2,64.4,38,30.00,10.0,SSE,6.9,-,N/A,,Clear,150,2013-06-13 19:45:00
3:05 PM,93.2,64.4,38,29.99,10.0,South,8.1,-,N/A,,Clear,170,2013-06-13 20:05:00
3:25 PM,95.0,64.4,36,29.99,10.0,SSW,10.4,17.3,N/A,,Clear,200,2013-06-13 20:25:00
3:45 PM,95.0,66.2,39,29.97,10.0,SSE,8.1,18.4,N/A,,Clear,160,2013-06-13 20:45:00
4:05 PM,95.0,66.2,39,29.96,10.0,SSW,10.4,17.3,N/A,,Clear,200,2013-06-13 21:05:00
4:25 PM,95.0,66.2,39,29.95,10.0,SSE,11.5,-,N/A,,Clear,160,2013-06-13 21:25:00
4:45 PM,95.0,66.2,39,29.94,10.0,SSW,5.8,-,N/A,,Clear,210,2013-06-13 21:45:00
5:05 PM,95.0,66.2,39,29.93,10.0,SSE,12.7,-,N/A,,Clear,160,2013-06-13 22:05:00
5:25 PM,96.8,66.2,37,29.92,10.0,SSE,11.5,17.3,N/A,,Clear,160,2013-06-13 22:25:00
5:45 PM,96.8,66.2,37,29.91,10.0,South,11.5,19.6,N/A,,Clear,170,2013-06-13 22:45:00
6:05 PM,96.8,64.4,34,29.90,10.0,South,11.5,21.9,N/A,,Clear,170,2013-06-13 23:05:00
6:25 PM,96.8,64.4,34,29.90,10.0,SSE,16.1,19.6,N/A,,Clear,150,2013-06-13 23:25:00
6:45 PM,95.0,62.6,34,29.89,10.0,SSE,12.7,-,N/A,,Clear,160,2013-06-13 23:45:00
7:05 PM,95.0,62.6,34,29.89,10.0,SSE,15.0,19.6,N/A,,Clear,150,2013-06-14 00:05:00
7:25 PM,95.0,60.8,32,29.89,10.0,SSE,12.7,-,N/A,,Clear,150,2013-06-14 00:25:00
7:45 PM,93.2,62.6,36,29.89,10.0,SSE,10.4,-,N/A,,Clear,160,2013-06-14 00:45:00
8:05 PM,91.4,62.6,38,29.90,10.0,SSE,9.2,-,N/A,,Clear,150,2013-06-14 01:05:00
8:25 PM,89.6,62.6,40,29.91,10.0,SSE,8.1,-,N/A,,Clear,160,2013-06-14 01:25:00
8:45 PM,86.0,64.4,48,29.91,10.0,SE,6.9,-,N/A,,Clear,140,2013-06-14 01:45:00
9:05 PM,84.2,64.4,51,29.92,10.0,SE,8.1,-,N/A,,Clear,130,2013-06-14 02:05:00
9:25 PM,82.4,64.4,54,29.93,10.0,SE,8.1,-,N/A,,Clear,140,2013-06-14 02:25:00
9:45 PM,82.4,68.0,62,29.93,10.0,ESE,9.2,-,N/A,,Clear,120,2013-06-14 02:45:00
10:05 PM,82.4,71.6,70,29.94,10.0,ESE,13.8,-,N/A,,Clear,110,2013-06-14 03:05:00
10:25 PM,82.4,71.6,70,29.96,10.0,ESE,16.1,19.6,N/A,,Clear,110,2013-06-14 03:25:00
10:45 PM,80.6,71.6,74,29.96,10.0,ESE,13.8,-,N/A,,Clear,110,2013-06-14 03:45:00
11:05 PM,80.6,71.6,74,29.97,10.0,ESE,13.8,-,N/A,,Clear,120,2013-06-14 04:05:00
11:25 PM,78.8,71.6,78,29.97,10.0,SE,13.8,-,N/A,,Clear,130,2013-06-14 04:25:00
11:45 PM,78.8,71.6,78,29.97,10.0,SE,11.5,-,N/A,,Clear,130,2013-06-14 04:45:00